STARLINK-32329, 62736

Orbit data source: Space-Track

STARLINK-32329, 62736 is a payload satellite owned by SpaceX/Seattle (US) in LEO that was launched on Tue, 21 Jan 2025 UTC via an FALCON 9 launch vehicle from the Air Force Eastern Test Range (AFETR). Payload-class satellites include a variety of spacecraft equipped with specific instruments for various scientific and technological missions. These include communications satellites like Starlink; space stations such as the ISS; scientific satellites like the Hubble; Earth observation satellites from companies like Planet Labs, Umbra, and HawkEye 360; GPS; miniature CubeSats for education and research; and military/defense satellites.

Loading next visibility...
Identifier
62736, 2025-014B
Orbit
LEO
Country
Flag of USUS
Related business
Manufacturer
SpaceX/Seattle
Mission
Operational Commercial Communications
Bus & Motor
STARLINK V2M, Unknown motor
Mass
730 kg wet, ~700 kg dry
Launch date (UTC)
2025-01-21 (11 months ago)
Launch vehicle
FALCON 9
Launch site
Air Force Eastern Test Range (AFETR)
Object type
Payload
Rocket body
Debris
Shape & HBR
Box + 2 Pan, 17.7 m
Radar Cross Section
33.884 m², Large (>1 m²)

Expand to show TLE details & history
Last TLE update: 20 hours ago

TLE from 20 hours ago
0 STARLINK-32329
1 62736U 25014B   25348.85337893  .00017860  00000-0  65705-3 0  9992
2 62736  43.0013 273.4275 0001100 278.5704  81.5023 15.27575972 50286
Epoch: 2025-12-14T20:28Z
TLE epoch observation values (Epoch: 2025-12-14T20:28:51.939Z)
Latitude
-0.00002°
Longitude
-117.54927°
Altitude
482.725 km
Speed
7.626 km/s
True Right ascension
18h 13m 42s
True Declination
0° 00' 00"
Sunlit
Object was in daylight at epoch
Visualization orbit readout
Latitude
Unknown
Longitude
Unknown
Altitude
Unknown
Speed
Unknown
Apparent Right ascension
Unknown
Apparent Declination
Unknown
Sunlit
N/A
Visualization observer readout
Local Sidereal Time
15:11:34
Azimuth
Unknown
Elevation
Unknown
Doppler factor
Unknown
Orbital elements
Apogee altitude
485.761 km
Perigee altitude
484.251 km
Semi-major axis
6,863.143 km
Eccentricity
0.00011
Inclination
43.0013°
RAAN
273.4275°
Arg. of periapsis
278.5704°
True anomaly
81.51477°
Mean anomaly
81.5023°
Eccentric anomaly
81.50853°
Mean motion
3.81732 °/min
Orbital period
94.31 mins
BSTAR
0.00065705
Loading maneuver chart data...
Computing Atmospheric mass density...
Loading historical data...
Loading historical data...
Loading historical data...
Loading historical data...
Loading historical data...
Loading historical data...
Loading historical data...

Documentation

Showing up to 5 results
|